Observer details:
511 Haute Provence.  Observers M. Dennefeld, W. Brzezinska, M. Nowak, F. Spoto,
    W. Thuillot.  Measurers W. Thuillot, S. Bouquillon, F. Taris, T. Carlucci,
    C. Barache.  1.20-m f/6 reflector + CCD.
850 Cordell-Lorenz Observatory, Sewanee.  Observer D. T. Durig.  0.3-m f/7.6
    Schmidt-Cassegrain + CCD.
900 Moriyama.  Observer Y. Ikari.  0.26-m f/7.0 reflector + CCD.
A71 Stixendorf.  Observers M. Jaeger, E. Prosperi, S. Prosperi, W. Vollmann.
    Measurer M. Jaeger.  0.3-m f/4 reflector + CCD.
A77 Observatoire Chante-Perdrix, Dauban.  Observer J.-F. Soulier.  0.20-m f/4
    Newtonian reflector + CCD.
C77 Bernezzo Observatory.  Observer A. Mantero.  0.25-m f/4.0 reflector + CCD.
D29 Purple Mountain Observatory, XuYi Station.  Observers H. B. Zhao, B. Li,
    G. Zhaori, R. Q. Hong, L. F. Hu.  Measurers H. B. Zhao, B. Li, H. Lu,
    G. Zhaori, H. J. Tan.  1.04-m f/1.8 Schmidt + CCD.
G40 Slooh.com Canary Islands Observatory.  Observers J. L. Tuten,
    B. Lutkenhoner.  0.43-m f/6.8 Corrected Dall-Kirkham + CCD, 0.5-m f/6.8
    reflector + CCD.
I52 Steward Observatory, Mt. Lemmon Station.  Observer R. A. Kowalski.
    Measurers E. J. Christensen, D. C. Fuls, A. R. Gibbs, A. D. Grauer,
    J. A. Johnson, R. A. Kowalski, S. M. Larson, G. J. Leonard, R. G. Matheny,
    R. L. Seaman, F. C. Shelly.  1.0-m reflector + CCD.
J08 Observatorio Zonalunar, Puzol.  Observer A. Carreno.  Measurer J. Piqueras.
    0.20-m f/5 Newtonian reflector + CCD.
J22 Tacande Observatory, La Palma.  Observer K. Hills.  0.5-m f/2.9 astrograph
    + CCD.
K88 GINOP-KHK, Piszkesteto.  Observer O. Hanyecz.  Measurer K. Sarneczky.
    0.60-m Schmidt + CCD.
L04 ROASTERR-1 Observatory, Cluj-Napoca.  Observer L. Hudin.  0.3-m f/5.0
    reflector + CCD.
T03 Haleakala-LCO Clamshell #3.  Observers P. Miller, E. Gomez, R. Holmes,
    S. Foglia, L. Buzzi.  Measurers S. Foglia, L. Buzzi.  0.4-m f/8 reflector
    + CCD.
T05 ATLAS-HKO, Haleakala.  Observers L. Denneau, A. Heinze, H. Weiland,
    B. Stalder, J. Tonry.  Measurers L. Denneau, A. Heinze, J. Tonry.  0.5-m
    f/2.0 Schmidt + CCD.
T08 ATLAS-MLO, Mauna Loa.  Observers L. Denneau, A. Heinze, H. Weiland,
    B. Stalder, J. Tonry.  Measurers L. Denneau, A. Heinze, J. Tonry.  0.5-m
    f/2.0 Schmidt + CCD.
U69 iTelescope SRO Observatory, Auberry.  Observer H. Sato.  0.61-m f/6.5
    astrograph + CCD.
W25 RMS Observatory, Cincinnati.  Observer B. Rowe.  0.35-m Schmidt-Cassegrain
    + CCD.
 
Orbital elements:
    P/2017 S5 (ATLAS)
Epoch 2017 July 26.0 TT = JDT 2457960.5
T 2017 July 28.05818 TT                                 MPCW
q   2.1789832            (2000.0)            P               Q
n   0.17449612     Peri.   99.97418     +0.97110803     +0.13646069
a   3.1716033      Node   252.38627     -0.19661053     +0.92246484
e   0.3129711      Incl.   11.85317     +0.13525342     +0.36116077
P   5.65
>From 87 observations 2017 Sept. 11-29, mean residual 0".4.

    P/2017 S5 (ATLAS)
Epoch 2023 Apr. 6.0 TT = JDT 2460040.5
T 2023 Mar. 20.27691 TT                                 MPCW
q   2.1712231            (2000.0)            P               Q
n   0.17471476     Peri.  100.00772     +0.97107318     +0.13663902
a   3.1689568      Node   252.34324     -0.19677289     +0.92249180
e   0.3148461      Incl.   11.85901     +0.13526753     +0.36102446
P   5.64
>From 87 observations 2017 Sept. 11-29, mean residual 0".4.

    P/2017 S5 (ATLAS)
Epoch 2017 Sept. 4.0 TT = JDT 2458000.5
T 2017 July 28.05695 TT                                 MPCW
q   2.1789825            (2000.0)            P               Q
n   0.17448887     Peri.   99.97422     +0.97110686     +0.13646910
a   3.1716912      Node   252.38574     -0.19661823     +0.92246387
e   0.3129903      Incl.   11.85320     +0.13525065     +0.36116008
P   5.65
>From 87 observations 2017 Sept. 11-29, mean residual 0".4.

Ephemeris:
    P/2017 S5 (ATLAS)
Date    TT    R. A. (2000) Decl.     Delta      r     Elong.  Phase   m1    m2
2017 08 30    01 04 11.4 +25 38 50   1.4042  2.1895   129.5    20.9  18.1
...
2017 09 14    01 01 12.6 +25 58 04   1.3143  2.2012   142.8    16.0  18.0
...
2017 09 22    00 57 23.5 +25 38 59   1.2819  2.2091   150.0    13.1  18.0
...
2017 09 28    00 53 49.5 +25 10 50   1.2660  2.2157   155.2    11.0  18.0
2017 09 29    00 53 11.5 +25 05 01   1.2641  2.2169   156.0    10.6  18.0
2017 09 30    00 52 33.0 +24 58 55   1.2625  2.2181   156.7    10.3  18.0
...
2017 10 06    00 48 36.4 +24 16 15   1.2573  2.2256   160.7     8.5  18.0
...
2017 10 14    00 43 25.9 +23 05 32   1.2635  2.2366   163.0     7.5  18.0
...
2017 10 29    00 35 56.9 +20 28 31   1.3171  2.2600   155.8    10.4  18.1

Gareth V. Williams           (C) Copyright 2017 MPC           M.P.E.C. 2017-S213




More information about the Iaude mailing list